Time,TemperatureF,DewpointF,PressureIn,WindDirection,WindDirectionDegrees,WindSpeedMPH,WindSpeedGustMPH,Humidity,HourlyPrecipIn,Conditions,Clouds,dailyrainin,SoftwareType,DateUTC
2013-02-28 00:01:00,43.0,38.0,29.89,WSW,250,2.0,5.0,81,0.00,,,0.46,,2013-02-28 06:01:00,
2013-02-28 00:11:00,43.0,38.0,29.89,WSW,250,2.0,5.0,81,0.00,,,0.46,,2013-02-28 06:11:00,
2013-02-28 00:22:00,43.0,38.0,29.88,WSW,239,0.0,0.0,83,0.00,,,0.00,,2013-02-28 06:22:00,
2013-02-28 00:32:00,43.0,39.0,29.89,WSW,253,0.0,3.0,85,0.00,,,0.00,,2013-02-28 06:32:00,
2013-02-28 00:42:00,43.0,39.0,29.89,WSW,253,0.0,3.0,85,0.00,,,0.00,,2013-02-28 06:42:00,
2013-02-28 00:52:00,42.0,38.0,29.88,West,262,3.0,4.0,87,0.00,,,0.00,,2013-02-28 06:52:00,
2013-02-28 01:01:00,42.0,39.0,29.88,WSW,240,3.0,4.0,89,0.00,,,0.00,,2013-02-28 07:01:00,
2013-02-28 01:11:00,42.0,39.0,29.88,WSW,240,3.0,4.0,89,0.00,,,0.00,,2013-02-28 07:11:00,
2013-02-28 01:21:00,43.0,40.0,29.88,WNW,283,4.0,6.0,90,0.00,,,0.00,,2013-02-28 07:21:00,
2013-02-28 01:31:00,42.0,39.0,29.88,WSW,249,3.0,5.0,89,0.00,,,0.00,,2013-02-28 07:31:00,
2013-02-28 01:41:00,42.0,39.0,29.88,WSW,249,3.0,5.0,89,0.00,,,0.00,,2013-02-28 07:41:00,
2013-02-28 01:52:00,42.0,39.0,29.87,WNW,285,3.0,5.0,88,0.00,,,0.00,,2013-02-28 07:52:00,
2013-02-28 02:01:00,43.0,39.0,29.87,West,280,4.0,10.0,87,0.00,,,0.00,,2013-02-28 08:01:00,
2013-02-28 02:11:00,43.0,39.0,29.87,West,280,4.0,10.0,87,0.00,,,0.00,,2013-02-28 08:11:00,
2013-02-28 02:22:00,42.0,38.0,29.87,WNW,284,3.0,7.0,86,0.00,,,0.00,,2013-02-28 08:22:00,
2013-02-28 02:32:00,42.0,38.0,29.87,WNW,285,6.0,8.0,86,0.00,,,0.00,,2013-02-28 08:32:00,
2013-02-28 02:42:00,42.0,38.0,29.87,WNW,285,6.0,8.0,86,0.00,,,0.00,,2013-02-28 08:42:00,
2013-02-28 02:53:00,42.0,38.0,29.87,West,259,5.0,6.0,86,0.00,,,0.00,,2013-02-28 08:53:00,
2013-02-28 03:03:00,42.0,38.0,29.87,NNW,342,2.0,9.0,87,0.00,,,0.00,,2013-02-28 09:03:00,
2013-02-28 03:11:00,42.0,38.0,29.87,NNW,342,2.0,9.0,87,0.00,,,0.00,,2013-02-28 09:11:00,
2013-02-28 03:22:00,42.0,39.0,29.87,West,259,3.0,5.0,88,0.00,,,0.00,,2013-02-28 09:22:00,
2013-02-28 03:32:00,41.0,38.0,29.87,WNW,287,2.0,9.0,89,0.00,,,0.00,,2013-02-28 09:32:00,
2013-02-28 03:42:00,41.0,38.0,29.87,WNW,287,2.0,9.0,89,0.00,,,0.00,,2013-02-28 09:42:00,
2013-02-28 03:52:00,41.0,38.0,29.87,WSW,245,1.0,6.0,89,0.00,,,0.00,,2013-02-28 09:52:00,
2013-02-28 04:01:00,42.0,37.0,29.87,NW,322,4.0,10.0,81,0.00,,,0.00,,2013-02-28 10:01:00,
2013-02-28 04:11:00,42.0,36.0,29.87,North,1,3.0,6.0,80,0.00,,,0.00,,2013-02-28 10:11:00,
2013-02-28 04:22:00,42.0,36.0,29.87,North,1,3.0,6.0,80,0.00,,,0.00,,2013-02-28 10:22:00,
2013-02-28 04:32:00,41.0,35.0,29.88,NW,321,5.0,8.0,80,0.00,,,0.00,,2013-02-28 10:32:00,
2013-02-28 04:42:00,41.0,35.0,29.88,NW,321,5.0,8.0,80,0.00,,,0.00,,2013-02-28 10:42:00,
2013-02-28 04:52:00,40.0,34.0,29.88,NW,314,8.0,13.0,80,0.00,,,0.00,,2013-02-28 10:52:00,
2013-02-28 05:01:00,39.0,33.0,29.89,NW,309,7.0,12.0,80,0.00,,,0.00,,2013-02-28 11:01:00,
2013-02-28 05:11:00,39.0,33.0,29.89,NW,309,7.0,12.0,80,0.00,,,0.00,,2013-02-28 11:11:00,
2013-02-28 05:21:00,39.0,33.0,29.90,WNW,300,5.0,11.0,79,0.00,,,0.00,,2013-02-28 11:21:00,
2013-02-28 05:32:00,39.0,33.0,29.91,North,4,7.0,11.0,79,0.00,,,0.00,,2013-02-28 11:32:00,
2013-02-28 05:42:00,39.0,33.0,29.91,North,4,7.0,11.0,79,0.00,,,0.00,,2013-02-28 11:42:00,
2013-02-28 05:52:00,38.0,32.0,29.90,NE,42,5.0,11.0,80,0.00,,,0.00,,2013-02-28 11:52:00,
2013-02-28 06:01:00,38.0,33.0,29.91,SSE,152,4.0,10.0,81,0.00,,,0.00,,2013-02-28 12:01:00,
2013-02-28 06:11:00,38.0,33.0,29.91,SSE,152,4.0,10.0,81,0.00,,,0.00,,2013-02-28 12:11:00,
2013-02-28 06:21:00,38.0,32.0,29.91,NNE,20,8.0,9.0,80,0.00,,,0.00,,2013-02-28 12:21:00,
2013-02-28 06:32:00,38.0,32.0,29.93,North,10,3.0,14.0,79,0.00,,,0.00,,2013-02-28 12:32:00,
2013-02-28 06:42:00,38.0,32.0,29.93,North,10,3.0,14.0,79,0.00,,,0.00,,2013-02-28 12:42:00,
2013-02-28 06:52:00,38.0,32.0,29.93,North,7,3.0,11.0,80,0.00,,,0.00,,2013-02-28 12:52:00,
2013-02-28 07:01:00,38.0,32.0,29.93,NNE,13,2.0,10.0,80,0.00,,,0.00,,2013-02-28 13:01:00,
2013-02-28 07:11:00,38.0,33.0,29.94,NW,325,4.0,7.0,81,0.00,,,0.00,,2013-02-28 13:11:00,
2013-02-28 07:21:00,38.0,33.0,29.94,NW,325,4.0,7.0,81,0.00,,,0.00,,2013-02-28 13:21:00,
2013-02-28 07:32:00,38.0,32.0,29.95,NW,321,6.0,13.0,79,0.00,,,0.00,,2013-02-28 13:32:00,
2013-02-28 07:42:00,38.0,32.0,29.95,NW,321,6.0,13.0,79,0.00,,,0.00,,2013-02-28 13:42:00,
2013-02-28 07:52:00,38.0,33.0,29.95,NW,322,6.0,10.0,81,0.00,,,0.00,,2013-02-28 13:52:00,
2013-02-28 08:01:00,38.0,31.0,29.96,NNE,15,9.0,15.0,77,0.00,,,0.00,,2013-02-28 14:01:00,
2013-02-28 08:11:00,38.0,31.0,29.96,NW,308,9.0,16.0,77,0.00,,,0.00,,2013-02-28 14:11:00,
2013-02-28 08:22:00,38.0,31.0,29.96,NW,308,9.0,16.0,77,0.00,,,0.00,,2013-02-28 14:22:00,
2013-02-28 08:32:00,39.0,33.0,29.96,North,7,7.0,14.0,78,0.00,,,0.00,,2013-02-28 14:32:00,
2013-02-28 08:42:00,39.0,33.0,29.96,North,11,11.0,12.0,78,0.00,,,0.00,,2013-02-28 14:42:00,
2013-02-28 08:52:00,39.0,33.0,29.96,North,11,11.0,12.0,78,0.00,,,0.00,,2013-02-28 14:52:00,
2013-02-28 09:02:00,39.0,33.0,29.96,North,6,5.0,11.0,79,0.00,,,0.00,,2013-02-28 15:02:00,
2013-02-28 09:11:00,39.0,33.0,29.96,NNW,332,6.0,12.0,78,0.00,,,0.00,,2013-02-28 15:11:00,
2013-02-28 09:21:00,39.0,33.0,29.96,NNW,332,6.0,12.0,78,0.00,,,0.00,,2013-02-28 15:21:00,
2013-02-28 09:32:00,40.0,33.0,29.96,NNW,335,8.0,14.0,75,0.00,,,0.00,,2013-02-28 15:32:00,
2013-02-28 09:42:00,40.0,33.0,29.96,NNW,335,8.0,14.0,75,0.00,,,0.00,,2013-02-28 15:42:00,
2013-02-28 09:52:00,39.0,33.0,29.96,NW,315,6.0,13.0,78,0.00,,,0.00,,2013-02-28 15:52:00,
2013-02-28 10:01:00,39.0,32.0,29.96,NNW,333,10.0,10.0,77,0.00,,,0.00,,2013-02-28 16:01:00,
2013-02-28 10:11:00,40.0,33.0,29.97,NNW,345,5.0,11.0,77,0.00,,,0.00,,2013-02-28 16:11:00,
2013-02-28 10:22:00,40.0,33.0,29.97,NNW,345,5.0,11.0,77,0.00,,,0.00,,2013-02-28 16:22:00,
2013-02-28 10:32:00,39.0,31.0,29.97,NNW,342,10.0,15.0,73,0.00,,,0.00,,2013-02-28 16:32:00,
2013-02-28 10:42:00,39.0,31.0,29.97,NNW,342,10.0,15.0,73,0.00,,,0.00,,2013-02-28 16:42:00,
2013-02-28 10:52:00,39.0,31.0,29.98,NNW,329,5.0,15.0,73,0.00,,,0.00,,2013-02-28 16:52:00,
2013-02-28 11:01:00,40.0,33.0,29.98,NNW,339,5.0,12.0,76,0.00,,,0.00,,2013-02-28 17:01:00,
2013-02-28 11:11:00,40.0,32.0,29.99,North,1,5.0,12.0,74,0.00,,,0.00,,2013-02-28 17:11:00,
2013-02-28 11:21:00,40.0,32.0,29.99,North,1,5.0,12.0,74,0.00,,,0.00,,2013-02-28 17:21:00,
2013-02-28 11:32:00,40.0,32.0,29.99,NNW,335,5.0,13.0,74,0.00,,,0.00,,2013-02-28 17:32:00,
2013-02-28 11:42:00,40.0,32.0,29.99,NNW,335,5.0,13.0,74,0.00,,,0.00,,2013-02-28 17:42:00,
2013-02-28 11:52:00,40.0,33.0,29.99,NNE,15,4.0,13.0,75,0.00,,,0.00,,2013-02-28 17:52:00,
2013-02-28 12:02:00,40.0,32.0,29.98,NW,323,4.0,9.0,74,0.00,,,0.00,,2013-02-28 18:02:00,
2013-02-28 12:11:00,41.0,33.0,29.99,NW,318,4.0,9.0,74,0.00,,,0.00,,2013-02-28 18:11:00,
2013-02-28 12:22:00,41.0,33.0,29.99,NW,318,4.0,9.0,74,0.00,,,0.00,,2013-02-28 18:22:00,
2013-02-28 12:32:00,40.0,32.0,29.99,NNE,13,6.0,14.0,73,0.00,,,0.00,,2013-02-28 18:32:00,
2013-02-28 12:42:00,40.0,32.0,29.98,NW,305,5.0,11.0,73,0.00,,,0.00,,2013-02-28 18:42:00,
2013-02-28 12:52:00,40.0,32.0,29.98,NW,305,5.0,11.0,73,0.00,,,0.00,,2013-02-28 18:52:00,
2013-02-28 13:01:00,40.0,32.0,29.98,WNW,302,6.0,13.0,74,0.00,,,0.00,,2013-02-28 19:01:00,
2013-02-28 13:11:00,40.0,32.0,29.98,SE,134,8.0,13.0,73,0.00,,,0.00,,2013-02-28 19:11:00,
2013-02-28 13:21:00,40.0,32.0,29.98,SE,134,8.0,13.0,73,0.00,,,0.00,,2013-02-28 19:21:00,
2013-02-28 13:32:00,40.0,32.0,29.99,NNE,25,4.0,9.0,73,0.00,,,0.00,,2013-02-28 19:32:00,
2013-02-28 13:41:00,40.0,32.0,29.99,NNE,25,4.0,9.0,73,0.00,,,0.00,,2013-02-28 19:41:00,
2013-02-28 13:52:00,41.0,33.0,29.99,WNW,287,2.0,7.0,74,0.00,,,0.00,,2013-02-28 19:52:00,
2013-02-28 14:01:00,40.0,32.0,30.00,North,352,4.0,10.0,74,0.00,,,0.00,,2013-02-28 20:01:00,
2013-02-28 14:12:00,40.0,32.0,30.00,North,352,4.0,10.0,74,0.00,,,0.00,,2013-02-28 20:12:00,
2013-02-28 14:21:00,41.0,33.0,30.00,NNE,18,3.0,9.0,74,0.00,,,0.00,,2013-02-28 20:21:00,
2013-02-28 14:32:00,40.0,32.0,30.00,North,3,8.0,11.0,74,0.00,,,0.00,,2013-02-28 20:32:00,
2013-02-28 14:42:00,40.0,32.0,30.00,North,3,8.0,11.0,74,0.00,,,0.00,,2013-02-28 20:42:00,
2013-02-28 14:52:00,41.0,33.0,30.00,WNW,293,4.0,9.0,74,0.00,,,0.00,,2013-02-28 20:52:00,
2013-02-28 15:01:00,40.0,33.0,30.00,NW,319,6.0,9.0,75,0.00,,,0.00,,2013-02-28 21:01:00,
2013-02-28 15:11:00,40.0,33.0,30.00,NW,319,6.0,9.0,75,0.00,,,0.00,,2013-02-28 21:11:00,
2013-02-28 15:22:00,40.0,33.0,30.01,NNE,18,4.0,9.0,75,0.00,,,0.00,,2013-02-28 21:22:00,
2013-02-28 15:32:00,40.0,33.0,30.00,NW,311,3.0,16.0,75,0.00,,,0.00,,2013-02-28 21:32:00,
2013-02-28 15:41:00,40.0,33.0,30.00,NW,311,3.0,16.0,75,0.00,,,0.00,,2013-02-28 21:41:00,
2013-02-28 15:52:00,40.0,33.0,30.01,North,350,5.0,11.0,76,0.00,,,0.00,,2013-02-28 21:52:00,
2013-02-28 16:01:00,40.0,33.0,30.01,North,8,3.0,7.0,76,0.00,,,0.00,,2013-02-28 22:01:00,
2013-02-28 16:11:00,40.0,33.0,30.01,NNE,25,5.0,9.0,77,0.00,,,0.00,,2013-02-28 22:11:00,
2013-02-28 16:21:00,40.0,33.0,30.01,NNE,25,5.0,9.0,77,0.00,,,0.00,,2013-02-28 22:21:00,
2013-02-28 16:32:00,40.0,33.0,30.01,NNE,24,0.0,6.0,77,0.00,,,0.00,,2013-02-28 22:32:00,
2013-02-28 16:41:00,40.0,33.0,30.01,NNE,24,0.0,6.0,77,0.00,,,0.00,,2013-02-28 22:41:00,
2013-02-28 16:52:00,40.0,34.0,30.01,NNW,335,3.0,9.0,78,0.00,,,0.00,,2013-02-28 22:52:00,
2013-02-28 17:01:00,40.0,33.0,30.01,NW,318,3.0,10.0,76,0.00,,,0.00,,2013-02-28 23:01:00,
2013-02-28 17:11:00,40.0,33.0,30.01,North,7,3.0,6.0,76,0.00,,,0.00,,2013-02-28 23:11:00,
2013-02-28 17:22:00,40.0,33.0,30.01,North,7,3.0,6.0,76,0.00,,,0.00,,2013-02-28 23:22:00,
2013-02-28 17:31:00,40.0,33.0,30.01,NNE,13,6.0,8.0,76,0.00,,,0.00,,2013-02-28 23:31:00,
2013-02-28 17:41:00,40.0,33.0,30.01,NNE,13,6.0,8.0,76,0.00,,,0.00,,2013-02-28 23:41:00,
2013-02-28 17:53:00,40.0,33.0,30.02,North,10,4.0,7.0,76,0.00,,,0.00,,2013-02-28 23:53:00,
2013-02-28 18:01:00,40.0,33.0,30.02,NW,325,0.0,7.0,76,0.00,,,0.00,,2013-03-01 00:01:00,
2013-02-28 18:11:00,40.0,33.0,30.02,NW,325,0.0,7.0,76,0.00,,,0.00,,2013-03-01 00:11:00,
2013-02-28 18:22:00,40.0,33.0,30.02,NNW,336,3.0,8.0,75,0.00,,,0.00,,2013-03-01 00:22:00,
2013-02-28 18:32:00,40.0,33.0,30.03,NW,319,1.0,6.0,76,0.00,,,0.00,,2013-03-01 00:32:00,
2013-02-28 18:41:00,40.0,33.0,30.03,NW,319,1.0,6.0,76,0.00,,,0.00,,2013-03-01 00:41:00,
2013-02-28 18:52:00,40.0,33.0,30.03,WNW,301,2.0,5.0,76,0.00,,,0.00,,2013-03-01 00:52:00,
2013-02-28 19:01:00,40.0,33.0,30.03,NNE,24,1.0,4.0,75,0.00,,,0.00,,2013-03-01 01:01:00,
2013-02-28 19:11:00,40.0,33.0,30.03,NNW,339,3.0,8.0,75,0.00,,,0.00,,2013-03-01 01:11:00,
2013-02-28 19:21:00,40.0,33.0,30.03,NNW,339,3.0,8.0,75,0.00,,,0.00,,2013-03-01 01:21:00,
2013-02-28 19:32:00,40.0,33.0,30.03,NNW,342,5.0,8.0,75,0.00,,,0.00,,2013-03-01 01:32:00,
2013-02-28 19:42:00,40.0,33.0,30.03,NNW,342,5.0,8.0,75,0.00,,,0.00,,2013-03-01 01:42:00,
2013-02-28 19:52:00,40.0,33.0,30.03,NW,304,0.0,7.0,76,0.00,,,0.00,,2013-03-01 01:52:00,
2013-02-28 20:01:00,40.0,33.0,30.03,NW,325,0.0,8.0,76,0.00,,,0.00,,2013-03-01 02:01:00,
2013-02-28 20:11:00,39.0,32.0,30.03,NNW,340,4.0,6.0,76,0.00,,,0.00,,2013-03-01 02:11:00,
2013-02-28 20:21:00,39.0,32.0,30.03,NNW,340,4.0,6.0,76,0.00,,,0.00,,2013-03-01 02:21:00,
2013-02-28 20:31:00,39.0,32.0,30.03,NNE,23,6.0,14.0,75,0.00,,,0.00,,2013-03-01 02:31:00,
2013-02-28 20:42:00,39.0,32.0,30.03,NNE,23,6.0,14.0,75,0.00,,,0.00,,2013-03-01 02:42:00,
2013-02-28 20:52:00,39.0,32.0,30.03,NNE,17,5.0,13.0,75,0.00,,,0.00,,2013-03-01 02:52:00,
2013-02-28 21:01:00,40.0,33.0,30.03,North,359,5.0,9.0,75,0.00,,,0.00,,2013-03-01 03:01:00,
2013-02-28 21:11:00,40.0,33.0,30.03,North,0,1.0,7.0,76,0.00,,,0.00,,2013-03-01 03:11:00,
2013-02-28 21:21:00,40.0,33.0,30.03,North,0,1.0,7.0,76,0.00,,,0.00,,2013-03-01 03:21:00,
2013-02-28 21:32:00,40.0,32.0,30.04,North,349,6.0,8.0,74,0.00,,,0.00,,2013-03-01 03:32:00,
2013-02-28 21:42:00,40.0,32.0,30.04,North,349,6.0,8.0,74,0.00,,,0.00,,2013-03-01 03:42:00,
2013-02-28 21:51:00,39.0,32.0,30.04,NNE,28,5.0,9.0,75,0.00,,,0.00,,2013-03-01 03:51:00,
2013-02-28 22:01:00,39.0,32.0,30.04,North,7,4.0,8.0,76,0.00,,,0.00,,2013-03-01 04:01:00,
2013-02-28 22:11:00,39.0,32.0,30.04,North,7,4.0,8.0,76,0.00,,,0.00,,2013-03-01 04:11:00,
2013-02-28 22:21:00,39.0,32.0,30.04,North,359,6.0,9.0,76,0.00,,,0.00,,2013-03-01 04:21:00,
2013-02-28 22:32:00,39.0,32.0,30.03,North,359,5.0,13.0,76,0.00,,,0.00,,2013-03-01 04:32:00,
2013-02-28 22:42:00,39.0,32.0,30.03,North,359,5.0,13.0,76,0.00,,,0.00,,2013-03-01 04:42:00,
2013-02-28 22:52:00,39.0,32.0,30.02,NNE,15,6.0,12.0,76,0.00,,,0.00,,2013-03-01 04:52:00,
2013-02-28 23:02:00,39.0,33.0,30.02,NNE,23,6.0,11.0,78,0.00,,,0.00,,2013-03-01 05:02:00,
2013-02-28 23:11:00,39.0,33.0,30.02,NNE,23,6.0,11.0,78,0.00,,,0.00,,2013-03-01 05:11:00,
2013-02-28 23:22:00,39.0,32.0,30.02,NNE,25,6.0,9.0,77,0.00,,,0.00,,2013-03-01 05:22:00,
2013-02-28 23:32:00,39.0,33.0,30.01,North,10,6.0,10.0,78,0.00,,,0.00,,2013-03-01 05:32:00,
2013-02-28 23:42:00,39.0,33.0,30.01,North,10,6.0,10.0,78,0.00,,,0.00,,2013-03-01 05:42:00,
2013-02-28 23:52:00,39.0,33.0,30.01,NW,318,2.0,9.0,78,0.00,,,0.00,,2013-03-01 05:52:00,